Location: Ponte Samoggia
(44.5667°N, 11.1333°E)
Time: 23:02:53
(UTC+00:00)

Meteor 2-5 Rocket - Pass Details

Date: 26 May 2022
Orbit: 832 x 912 km, 81.2° (Epoch: 29 June)

Event Time Altitude Azimuth Distance (km) Brightness Sun altitude
Exits shadow 00:55:48 37° 190° (S) 1,332 4.2 -20.2°
Maximum altitude 00:58:13 89° 282° (WNW) 880 3.7 -20.0°
Drops below altitude 10° 01:03:56 10° 10° (N) 2,505 7.2 -19.6°
Sets 01:06:21 0° 11° (N) 3,435 8.2 -19.4°
